Location: Geography Hall
(41.1195°N, 80.5706°W)
Time: 00:25:02
(UTC+00:00)

ARGOS - Pass Details

Date: 29 October 2020
Orbit: 819 x 835 km, 98.4° (Epoch: 03 December)

Event Time Altitude Azimuth Distance (km) Brightness Sun altitude
Exits shadow 23:21:55 16° 86° (E) 2,048 4.5 -12.0°
Maximum altitude 23:23:43 19° 62° (ENE) 1,904 4.5 -12.4°
Drops below altitude 10° 23:27:23 10° 19° (NNE) 2,455 5.4 -13.0°
Sets 23:30:24 0° 2° (N) 3,394 6.3 -13.6°
